Terug naar catalogus

COSMOS 2251 DEB

ActiefLEO
NORAD 33912·DEBRIS·🇷🇺 Russia

Gelanceerd Jun 16, 1993 vanaf Plesetsk Cosmodrome

Loading…

Volgende Passages (komende 24 uur)

TLE

VersSource: Space-Track

Epoch: Sep 14, 2026, 07:42 UTC

1 33912U 93036DR  26257.32151625  .00001700  00000-0  41554-3 0  9996
2 33912  74.0344  29.8824 0010737  40.2256 342.4857 14.53317006924358

Volg COSMOS 2251 DEB in realtime met AllMySat

Download on the App Store